This is the latest recevied weather packets stored in our database for station/object DW2488. If no packets are shown the sender has not sent any weather packets the latest 10 day(s).
| Time | Temp. | Humidity | Pressure | Rain* | Wind** | Luminosity | Snow |
|---|---|---|---|---|---|---|---|
| 1777455740 | 16.67° C | 80% | 1030 hPa | 0 mm | - | 0 W/m² | - |
| 1777454832 | 16.67° C | 79% | 1029.8 hPa | 0 mm | - | 0 W/m² | - |
| 1777453933 | 17.22° C | 78% | 1029.8 hPa | 0 mm | - | 0 W/m² | - |
| 1777453038 | 17.78° C | 77% | 1029.7 hPa | 0 mm | - | 0 W/m² | - |
| 1777452139 | 17.78° C | 76% | 1029.5 hPa | 0 mm | - | 0 W/m² | - |
| 1777451232 | 18.33° C | 74% | 1029.5 hPa | 0 mm | - | 0 W/m² | - |
| 1777450330 | 18.89° C | 72% | 1029.2 hPa | 0 mm | - | 0 W/m² | - |
| 1777449435 | 19.44° C | 70% | 1029 hPa | 0 mm | - | 0 W/m² | - |
| 1777448536 | 20° C | 68% | 1028.9 hPa | 0 mm | - | 0 W/m² | - |
| 1777447637 | 20.56° C | 67% | 1028.8 hPa | 0 mm | - | 0 W/m² | - |
| 1777446737 | 21.11° C | 66% | 1028.6 hPa | 0 mm | - | 7 W/m² | - |
| 1777445832 | 21.11° C | 64% | 1028.4 hPa | 0 mm | - | 16 W/m² | - |
| 1777444940 | 22.22° C | 62% | 1028.2 hPa | 0 mm | - | 18 W/m² | - |
| 1777444032 | 22.78° C | 60% | 1028.2 hPa | 0 mm | - | 25 W/m² | - |
| 1777443138 | 23.33° C | 59% | 1028.1 hPa | 0 mm | - | 114 W/m² | - |
| 1777442230 | 23.89° C | 58% | 1027.9 hPa | 0 mm | - | 162 W/m² | - |
| 1777441330 | 24.44° C | 55% | 1028 hPa | 0 mm | - | 204 W/m² | - |
| 1777440432 | 25° C | 46% | 1027.9 hPa | 0 mm | - | 301 W/m² | - |
| 1777439535 | 25° C | 46% | 1028 hPa | 0 mm | - | 322 W/m² | - |
| 1777438634 | 25.56° C | 47% | 1028 hPa | 0 mm | - | 366 W/m² | - |
| 1777437737 | 25.56° C | 46% | 1027.8 hPa | 0 mm | - | 462 W/m² | - |
| 1777436835 | 25° C | 46% | 1027.8 hPa | 0 mm | - | 468 W/m² | - |
| 1777435937 | 25.56° C | 45% | 1027.8 hPa | 0 mm | - | 207 W/m² | - |
| 1777435031 | 25.56° C | 45% | 1027.7 hPa | 0 mm | - | 72 W/m² | - |
| 1777434138 | 26.11° C | 45% | 1027.8 hPa | 0 mm | - | 503 W/m² | - |
* Rain latest hour (hover to see other rain measurements)
** Current wind speed in m/s (hover to see current wind gust speed)